Location: ??????
(38.0131°N, 23.7723°E)
Time: 01:59:21
(UTC+00:00)

CZ-4 R/B - Pass Details

Date: 17 October 2021
Orbit: 531 x 595 km, 97.8° (Epoch: 04 December)

Event Time Altitude Azimuth Distance (km) Brightness Sun altitude
Exits shadow 18:00:40 - 198° (SSW) 2,361 4.6 -27.5°
Reaches altitude 10° 18:02:11 10° 209° (SSW) 1,814 4.1 -27.8°
Maximum altitude 18:05:26 24° 265° (W) 1,158 3.6 -28.5°
Drops below altitude 10° 18:08:44 10° 320° (NW) 1,858 4.6 -29.1°
Sets 18:11:13 0° 334° (NNW) 2,772 5.4 -29.6°
